| time (UTC) | temp F | wind direction | speed MPH | gust MPH | rain 1hr in | rain 24hr in | rain mn in | humidity % | barometer mb |
| 20260906174507 | 80 | 231 | 0.0 | 1.0 | 0.20 | 0.22 | 0.20 | 90 | 1014.2 |
| 20260906174008 | 80 | 226 | 0.0 | 1.0 | 0.16 | 0.18 | 0.16 | 89 | 1014.4 |
| 20260906173507 | 81 | 203 | 0.0 | 0.0 | 0.10 | 0.12 | 0.10 | 87 | 1014.7 |
| 20260906173012 | 82 | 107 | 0.0 | 0.0 | 0.03 | 0.05 | 0.03 | 85 | 1014.8 |
| 20260906172507 | 82 | 217 | 0.0 | 0.0 | 0.00 | 0.02 | 0.00 | 83 | 1014.9 |
| 20260906172007 | 83 | 227 | 0.0 | 0.0 | 0.00 | 0.02 | 0.00 | 83 | 1014.9 |
| 20260906171513 | 83 | 228 | 0.0 | 0.0 | 0.00 | 0.02 | 0.00 | 82 | 1015.0 |
| 20260906171007 | 84 | 228 | 0.0 | 0.0 | 0.00 | 0.02 | 0.00 | 82 | 1015.0 |
| 20260906170506 | 84 | 229 | 0.0 | 0.0 | 0.00 | 0.02 | 0.00 | 80 | 1015.0 |
| 20260906170015 | 84 | 217 | 0.0 | 0.0 | 0.00 | 0.02 | 0.00 | 82 | 1014.9 |
| 20260906165509 | 84 | 217 | 0.0 | 0.0 | 0.00 | 0.02 | 0.00 | 81 | 1014.8 |
| 20260906165009 | 84 | 217 | 0.0 | 1.0 | 0.00 | 0.02 | 0.00 | 80 | 1014.7 |
| 20260906164515 | 85 | 220 | 0.0 | 1.0 | 0.00 | 0.02 | 0.00 | 83 | 1014.9 |
| 20260906164004 | 85 | 207 | 0.0 | 0.0 | 0.00 | 0.02 | 0.00 | 84 | 1014.9 |
| 20260906163507 | 85 | 207 | 0.0 | 0.0 | 0.00 | 0.02 | 0.00 | 84 | 1014.9 |
| 20260906163018 | 85 | 207 | 0.0 | 0.0 | 0.00 | 0.02 | 0.00 | 83 | 1014.9 |
| 20260906162508 | 85 | 207 | 0.0 | 0.0 | 0.00 | 0.02 | 0.00 | 84 | 1014.9 |
| 20260906162007 | 85 | 207 | 0.0 | 0.0 | 0.00 | 0.02 | 0.00 | 86 | 1014.9 |
| 20260906161519 | 85 | 205 | 0.0 | 0.0 | 0.00 | 0.02 | 0.00 | 87 | 1014.9 |
| 20260906161011 | 85 | 205 | 0.0 | 0.0 | 0.00 | 0.02 | 0.00 | 85 | 1014.7 |
| 20260906160507 | 85 | 205 | 0.0 | 0.0 | 0.00 | 0.02 | 0.00 | 85 | 1014.8 |
| 20260906160014 | 85 | 205 | 0.0 | 0.0 | 0.00 | 0.02 | 0.00 | 87 | 1014.8 |
| 20260906155508 | 85 | 206 | 0.0 | 0.0 | 0.00 | 0.02 | 0.00 | 86 | 1014.9 |
| 20260906155007 | 85 | 206 | 0.0 | 0.0 | 0.00 | 0.02 | 0.00 | 84 | 1014.9 |
| 20260906154520 | 85 | 65 | 0.0 | 0.0 | 0.00 | 0.02 | 0.00 | 85 | 1014.8 |
| 20260906154010 | 85 | 71 | 0.0 | 0.0 | 0.00 | 0.02 | 0.00 | 84 | 1014.8 |
| 20260906153509 | 85 | 181 | 0.0 | 0.0 | 0.00 | 0.02 | 0.00 | 86 | 1014.8 |
| 20260906153020 | 84 | 132 | 0.0 | 0.0 | 0.00 | 0.02 | 0.00 | 87 | 1014.8 |
| 20260906152511 | 84 | 133 | 0.0 | 0.0 | 0.00 | 0.02 | 0.00 | 87 | 1014.9 |
| 20260906152005 | 83 | 134 | 0.0 | 0.0 | 0.00 | 0.02 | 0.00 | 88 | 1014.9 |
| 20260906151518 | 83 | 133 | 0.0 | 0.0 | 0.00 | 0.02 | 0.00 | 89 | 1014.8 |
| 20260906151007 | 83 | 229 | 0.0 | 0.0 | 0.00 | 0.02 | 0.00 | 89 | 1014.8 |
| 20260906150511 | 82 | 229 | 0.0 | 0.0 | 0.00 | 0.02 | 0.00 | 91 | 1014.8 |
| 20260906150024 | 82 | 230 | 0.0 | 0.0 | 0.00 | 0.02 | 0.00 | 91 | 1014.9 |
| 20260906145506 | 82 | 225 | 0.0 | 1.0 | 0.00 | 0.02 | 0.00 | 91 | 1014.9 |
| 20260906145009 | 81 | 221 | 0.0 | 1.0 | 0.00 | 0.02 | 0.00 | 92 | 1014.9 |
| 20260906144526 | 81 | 218 | 0.0 | 1.0 | 0.00 | 0.02 | 0.00 | 93 | 1014.9 |
| 20260906144009 | 81 | 84 | 0.0 | 0.0 | 0.00 | 0.02 | 0.00 | 94 | 1014.7 |
| 20260906143510 | 80 | 84 | 0.0 | 0.0 | 0.00 | 0.02 | 0.00 | 95 | 1014.7 |
| 20260906143029 | 80 | 78 | 0.0 | 0.0 | 0.00 | 0.02 | 0.00 | 95 | 1014.7 |
| 20260906142511 | 80 | 77 | 0.0 | 0.0 | 0.00 | 0.02 | 0.00 | 95 | 1014.6 |
| 20260906142014 | 80 | 78 | 0.0 | 0.0 | 0.00 | 0.02 | 0.00 | 95 | 1014.6 |
| 20260906141519 | 80 | 77 | 0.0 | 0.0 | 0.00 | 0.02 | 0.00 | 95 | 1014.6 |
| 20260906141011 | 79 | 77 | 0.0 | 0.0 | 0.00 | 0.02 | 0.00 | 96 | 1014.7 |
| 20260906140511 | 79 | 77 | 0.0 | 0.0 | 0.00 | 0.02 | 0.00 | 96 | 1014.7 |
| 20260906140027 | 79 | 77 | 0.0 | 0.0 | 0.00 | 0.02 | 0.00 | 96 | 1014.6 |
| 20260906135506 | 79 | 78 | 0.0 | 0.0 | 0.00 | 0.02 | 0.00 | 96 | 1014.6 |
| 20260906135012 | 78 | 78 | 0.0 | 0.0 | 0.00 | 0.02 | 0.00 | 97 | 1014.6 |
| 20260906134512 | 78 | 78 | 0.0 | 0.0 | 0.00 | 0.02 | 0.00 | 97 | 1014.6 |
| 20260906134003 | 78 | 77 | 0.0 | 0.0 | 0.00 | 0.02 | 0.00 | 97 | 1014.5 |
| 20260906133507 | 78 | 77 | 0.0 | 0.0 | 0.00 | 0.02 | 0.00 | 97 | 1014.5 |
| 20260906133008 | 78 | 78 | 0.0 | 0.0 | 0.00 | 0.02 | 0.00 | 97 | 1014.4 |
| 20260906132505 | 77 | 77 | 0.0 | 0.0 | 0.00 | 0.02 | 0.00 | 97 | 1014.5 |
| 20260906132007 | 76 | 77 | 0.0 | 0.0 | 0.00 | 0.02 | 0.00 | 97 | 1014.4 |
| 20260906131506 | 76 | 77 | 0.0 | 0.0 | 0.00 | 0.02 | 0.00 | 97 | 1014.3 |
| 20260906131009 | 76 | 77 | 0.0 | 0.0 | 0.00 | 0.02 | 0.00 | 97 | 1014.2 |
| 20260906130507 | 76 | 78 | 0.0 | 0.0 | 0.00 | 0.02 | 0.00 | 97 | 1014.1 |
| 20260906130005 | 76 | 77 | 0.0 | 0.0 | 0.00 | 0.03 | 0.00 | 97 | 1014.1 |
| 20260906125510 | 75 | 78 | 0.0 | 0.0 | 0.00 | 0.03 | 0.00 | 97 | 1014.1 |
| 20260906125002 | 75 | 78 | 0.0 | 0.0 | 0.00 | 0.03 | 0.00 | 97 | 1014.2 |
| 20260906124527 | 75 | 78 | 0.0 | 0.0 | 0.00 | 0.03 | 0.00 | 96 | 1014.0 |
| 20260906124006 | 75 | 77 | 0.0 | 0.0 | 0.00 | 0.03 | 0.00 | 96 | 1014.0 |
| 20260906123504 | 75 | 78 | 0.0 | 0.0 | 0.00 | 0.03 | 0.00 | 96 | 1013.9 |
| 20260906123024 | 75 | 77 | 0.0 | 0.0 | 0.00 | 0.03 | 0.00 | 96 | 1013.9 |
| 20260906122506 | 75 | 78 | 0.0 | 0.0 | 0.00 | 0.03 | 0.00 | 96 | 1013.9 |
| 20260906122004 | 75 | 78 | 0.0 | 0.0 | 0.00 | 0.03 | 0.00 | 96 | 1013.7 |
| 20260906121520 | 75 | 77 | 0.0 | 0.0 | 0.00 | 0.03 | 0.00 | 96 | 1013.6 |
| 20260906121005 | 75 | 77 | 0.0 | 0.0 | 0.00 | 0.03 | 0.00 | 96 | 1013.6 |
| 20260906120513 | 75 | 77 | 0.0 | 0.0 | 0.00 | 0.03 | 0.00 | 96 | 1013.5 |
| 20260906120018 | 75 | 77 | 0.0 | 0.0 | 0.00 | 0.03 | 0.00 | 96 | 1013.5 |
| 20260906115505 | 75 | 78 | 0.0 | 0.0 | 0.00 | 0.03 | 0.00 | 96 | 1013.5 |
| 20260906115012 | 75 | 77 | 0.0 | 0.0 | 0.00 | 0.03 | 0.00 | 96 | 1013.4 |
| 20260906114514 | 75 | 78 | 0.0 | 0.0 | 0.00 | 0.03 | 0.00 | 96 | 1013.3 |
| 20260906114003 | 75 | 78 | 0.0 | 0.0 | 0.00 | 0.03 | 0.00 | 96 | 1013.3 |
| 20260906113508 | 75 | 77 | 0.0 | 0.0 | 0.00 | 0.03 | 0.00 | 96 | 1013.3 |
| 20260906113010 | 75 | 77 | 0.0 | 0.0 | 0.00 | 0.03 | 0.00 | 96 | 1013.3 |
| 20260906112511 | 75 | 78 | 0.0 | 0.0 | 0.00 | 0.03 | 0.00 | 96 | 1013.3 |
| 20260906112010 | 75 | 77 | 0.0 | 0.0 | 0.00 | 0.03 | 0.00 | 96 | 1013.1 |
| 20260906111515 | 75 | 78 | 0.0 | 0.0 | 0.00 | 0.03 | 0.00 | 96 | 1013.0 |
| 20260906111012 | 75 | 77 | 0.0 | 0.0 | 0.00 | 0.03 | 0.00 | 96 | 1013.0 |
| 20260906110507 | 75 | 77 | 0.0 | 0.0 | 0.00 | 0.03 | 0.00 | 96 | 1013.0 |
| 20260906110007 | 75 | 78 | 0.0 | 0.0 | 0.00 | 0.03 | 0.00 | 96 | 1013.0 |
| 20260906105511 | 75 | 78 | 0.0 | 0.0 | 0.00 | 0.03 | 0.00 | 96 | 1013.0 |
| 20260906105007 | 75 | 77 | 0.0 | 0.0 | 0.00 | 0.03 | 0.00 | 96 | 1012.9 |
| 20260906104534 | 75 | 78 | 0.0 | 0.0 | 0.00 | 0.03 | 0.00 | 96 | 1012.9 |
| 20260906104008 | 75 | 78 | 0.0 | 0.0 | 0.00 | 0.03 | 0.00 | 96 | 1012.9 |
| 20260906103502 | 75 | 77 | 0.0 | 0.0 | 0.00 | 0.03 | 0.00 | 96 | 1012.8 |
| 20260906103024 | 75 | 77 | 0.0 | 0.0 | 0.00 | 0.03 | 0.00 | 96 | 1012.8 |
| 20260906102507 | 75 | 77 | 0.0 | 0.0 | 0.00 | 0.03 | 0.00 | 95 | 1012.8 |
| 20260906102014 | 75 | 78 | 0.0 | 0.0 | 0.00 | 0.03 | 0.00 | 95 | 1012.7 |
| 20260906101523 | 76 | 77 | 0.0 | 0.0 | 0.00 | 0.03 | 0.00 | 96 | 1012.6 |
| 20260906101003 | 76 | 78 | 0.0 | 0.0 | 0.00 | 0.03 | 0.00 | 95 | 1012.5 |
| 20260906100518 | 76 | 78 | 0.0 | 0.0 | 0.00 | 0.03 | 0.00 | 95 | 1012.5 |
| 20260906100019 | 76 | 78 | 0.0 | 0.0 | 0.00 | 0.03 | 0.00 | 95 | 1012.5 |
| 20260906095506 | 76 | 78 | 0.0 | 0.0 | 0.00 | 0.03 | 0.00 | 95 | 1012.6 |
| 20260906095012 | 76 | 78 | 0.0 | 0.0 | 0.00 | 0.03 | 0.00 | 95 | 1012.6 |
| 20260906094533 | 76 | 77 | 0.0 | 0.0 | 0.00 | 0.03 | 0.00 | 95 | 1012.6 |
| 20260906094018 | 76 | 78 | 0.0 | 0.0 | 0.00 | 0.03 | 0.00 | 95 | 1012.7 |
| 20260906093515 | 76 | 78 | 0.0 | 0.0 | 0.00 | 0.03 | 0.00 | 95 | 1012.7 |
| 20260906093023 | 76 | 78 | 0.0 | 0.0 | 0.00 | 0.03 | 0.00 | 96 | 1012.8 |
| 20260906092514 | 76 | 77 | 0.0 | 0.0 | 0.00 | 0.03 | 0.00 | 95 | 1012.7 |
| 20260906092012 | 76 | 77 | 0.0 | 0.0 | 0.00 | 0.03 | 0.00 | 95 | 1012.7 |
| 20260906091511 | 76 | 78 | 0.0 | 0.0 | 0.00 | 0.03 | 0.00 | 95 | 1012.6 |
| 20260906091014 | 76 | 77 | 0.0 | 0.0 | 0.00 | 0.03 | 0.00 | 95 | 1012.5 |
| 20260906090507 | 76 | 77 | 0.0 | 0.0 | 0.00 | 0.03 | 0.00 | 95 | 1012.3 |
| 20260906090030 | 76 | 78 | 0.0 | 0.0 | 0.00 | 0.03 | 0.00 | 95 | 1012.5 |
| 20260906085511 | 76 | 77 | 0.0 | 0.0 | 0.00 | 0.03 | 0.00 | 95 | 1012.4 |
| 20260906085007 | 76 | 77 | 0.0 | 0.0 | 0.00 | 0.03 | 0.00 | 95 | 1012.4 |
| 20260906084544 | 76 | 77 | 0.0 | 0.0 | 0.00 | 0.03 | 0.00 | 95 | 1012.3 |
| 20260906084010 | 77 | 77 | 0.0 | 0.0 | 0.00 | 0.03 | 0.00 | 95 | 1012.3 |
| 20260906083517 | 76 | 77 | 0.0 | 0.0 | 0.00 | 0.03 | 0.00 | 95 | 1012.2 |
| 20260906083034 | 76 | 77 | 0.0 | 0.0 | 0.00 | 0.03 | 0.00 | 95 | 1012.4 |
| 20260906082507 | 76 | 78 | 0.0 | 0.0 | 0.00 | 0.03 | 0.00 | 95 | 1012.5 |
| 20260906082014 | 76 | 78 | 0.0 | 0.0 | 0.00 | 0.03 | 0.00 | 95 | 1012.5 |
| 20260906081524 | 76 | 78 | 0.0 | 0.0 | 0.00 | 0.03 | 0.00 | 95 | 1012.6 |
| 20260906081007 | 76 | 77 | 0.0 | 0.0 | 0.00 | 0.03 | 0.00 | 95 | 1012.6 |
| 20260906080515 | 76 | 78 | 0.0 | 0.0 | 0.00 | 0.03 | 0.00 | 95 | 1012.5 |
| 20260906080028 | 76 | 77 | 0.0 | 0.0 | 0.00 | 0.03 | 0.00 | 95 | 1012.4 |
| 20260906075520 | 76 | 78 | 0.0 | 0.0 | 0.00 | 0.03 | 0.00 | 95 | 1012.5 |
| 20260906075011 | 76 | 77 | 0.0 | 0.0 | 0.00 | 0.03 | 0.00 | 95 | 1012.5 |
| 20260906074516 | 76 | 77 | 0.0 | 0.0 | 0.00 | 0.03 | 0.00 | 95 | 1012.6 |
| 20260906074013 | 77 | 77 | 0.0 | 0.0 | 0.00 | 0.03 | 0.00 | 95 | 1012.6 |
| 20260906073512 | 77 | 78 | 0.0 | 0.0 | 0.00 | 0.03 | 0.00 | 96 | 1012.7 |
| 20260906073014 | 76 | 78 | 0.0 | 0.0 | 0.00 | 0.03 | 0.00 | 95 | 1012.6 |
| 20260906072514 | 76 | 78 | 0.0 | 0.0 | 0.00 | 0.03 | 0.00 | 96 | 1012.7 |
| 20260906072008 | 76 | 77 | 0.0 | 0.0 | 0.00 | 0.03 | 0.00 | 96 | 1012.7 |
| 20260906071532 | 76 | 77 | 0.0 | 0.0 | 0.00 | 0.03 | 0.00 | 96 | 1012.8 |
| 20260906071014 | 76 | 77 | 0.0 | 0.0 | 0.00 | 0.03 | 0.00 | 95 | 1012.8 |
| 20260906070511 | 76 | 77 | 0.0 | 0.0 | 0.00 | 0.03 | 0.00 | 95 | 1012.8 |
| 20260906070031 | 76 | 78 | 0.0 | 0.0 | 0.00 | 0.03 | 0.00 | 95 | 1012.8 |
| 20260906065516 | 76 | 77 | 0.0 | 0.0 | 0.00 | 0.03 | 0.00 | 95 | 1012.9 |
| 20260906065006 | 76 | 77 | 0.0 | 0.0 | 0.00 | 0.03 | 0.00 | 95 | 1012.8 |
| 20260906064532 | 76 | 78 | 0.0 | 0.0 | 0.00 | 0.03 | 0.00 | 95 | 1012.7 |
| 20260906064011 | 76 | 77 | 0.0 | 0.0 | 0.00 | 0.03 | 0.00 | 95 | 1012.9 |
| 20260906063516 | 76 | 78 | 0.0 | 0.0 | 0.00 | 0.03 | 0.00 | 95 | 1013.0 |
| 20260906063026 | 76 | 78 | 0.0 | 0.0 | 0.00 | 0.03 | 0.00 | 95 | 1013.0 |
| 20260906062510 | 76 | 78 | 0.0 | 0.0 | 0.00 | 0.03 | 0.00 | 95 | 1012.9 |
| 20260906062014 | 76 | 78 | 0.0 | 0.0 | 0.00 | 0.03 | 0.00 | 95 | 1013.1 |
| 20260906061527 | 76 | 78 | 0.0 | 0.0 | 0.00 | 0.03 | 0.00 | 95 | 1013.0 |
| 20260906061018 | 76 | 77 | 0.0 | 0.0 | 0.00 | 0.03 | 0.00 | 95 | 1012.9 |
| 20260906060517 | 76 | 77 | 0.0 | 0.0 | 0.00 | 0.03 | 0.00 | 95 | 1012.8 |
| 20260906060027 | 76 | 77 | 0.0 | 0.0 | 0.00 | 0.03 | 0.00 | 95 | 1013.0 |
| 20260906055517 | 76 | 78 | 0.0 | 0.0 | 0.00 | 0.03 | 0.00 | 95 | 1012.9 |
| 20260906055013 | 76 | 78 | 0.0 | 0.0 | 0.00 | 0.03 | 0.00 | 95 | 1013.0 |
| 20260906054517 | 76 | 78 | 0.0 | 0.0 | 0.00 | 0.03 | 0.00 | 95 | 1013.2 |
| 20260906054015 | 76 | 78 | 0.0 | 0.0 | 0.00 | 0.03 | 0.00 | 95 | 1013.2 |
| 20260906053513 | 76 | 78 | 0.0 | 0.0 | 0.00 | 0.03 | 0.00 | 95 | 1013.1 |
| 20260906053033 | 76 | 77 | 0.0 | 0.0 | 0.00 | 0.03 | 0.00 | 95 | 1013.1 |
| 20260906052517 | 76 | 77 | 0.0 | 0.0 | 0.00 | 0.03 | 0.00 | 95 | 1013.2 |
| 20260906052010 | 76 | 78 | 0.0 | 0.0 | 0.00 | 0.03 | 0.00 | 95 | 1013.1 |
| 20260906051533 | 75 | 78 | 0.0 | 0.0 | 0.00 | 0.03 | 0.00 | 95 | 1012.9 |
| 20260906051012 | 75 | 77 | 0.0 | 0.0 | 0.00 | 0.03 | 0.00 | 95 | 1012.9 |
| 20260906050508 | 75 | 77 | 0.0 | 0.0 | 0.00 | 0.03 | 0.00 | 95 | 1013.1 |
| 20260906050009 | 75 | 77 | 0.0 | 0.0 | 0.00 | 0.03 | 0.00 | 94 | 1013.0 |
| 20260906045504 | 75 | 77 | 0.0 | 0.0 | 0.00 | 0.03 | 0.03 | 94 | 1012.9 |
| 20260906045009 | 75 | 78 | 0.0 | 0.0 | 0.00 | 0.03 | 0.03 | 94 | 1013.1 |
| 20260906044508 | 76 | 78 | 0.0 | 0.0 | 0.00 | 0.03 | 0.03 | 94 | 1013.0 |
| 20260906044012 | 76 | 78 | 0.0 | 0.0 | 0.00 | 0.03 | 0.03 | 94 | 1012.9 |
| 20260906043506 | 76 | 78 | 0.0 | 0.0 | 0.00 | 0.03 | 0.03 | 94 | 1012.9 |
| 20260906043004 | 76 | 77 | 0.0 | 0.0 | 0.00 | 0.03 | 0.03 | 94 | 1013.0 |
| 20260906042507 | 76 | 77 | 0.0 | 0.0 | 0.00 | 0.03 | 0.03 | 94 | 1012.9 |
| 20260906042006 | 76 | 78 | 0.0 | 0.0 | 0.00 | 0.03 | 0.03 | 94 | 1012.9 |
| 20260906041527 | 76 | 77 | 0.0 | 0.0 | 0.00 | 0.03 | 0.03 | 94 | 1013.0 |
| 20260906041013 | 76 | 78 | 0.0 | 0.0 | 0.00 | 0.03 | 0.03 | 94 | 1013.0 |
| 20260906040503 | 76 | 78 | 0.0 | 0.0 | 0.00 | 0.03 | 0.03 | 94 | 1013.0 |
| 20260906040030 | 76 | 77 | 0.0 | 0.0 | 0.00 | 0.03 | 0.03 | 94 | 1013.1 |
| 20260906035508 | 76 | 78 | 0.0 | 0.0 | 0.00 | 0.03 | 0.03 | 94 | 1013.1 |
| 20260906035004 | 76 | 77 | 0.0 | 0.0 | 0.00 | 0.03 | 0.03 | 93 | 1013.0 |
| 20260906034532 | 76 | 78 | 0.0 | 0.0 | 0.00 | 0.03 | 0.03 | 93 | 1013.1 |
| 20260906034002 | 76 | 77 | 0.0 | 0.0 | 0.00 | 0.03 | 0.03 | 93 | 1013.2 |
| 20260906033514 | 76 | 77 | 0.0 | 0.0 | 0.00 | 0.03 | 0.03 | 93 | 1013.2 |
| 20260906033025 | 77 | 78 | 0.0 | 0.0 | 0.00 | 0.03 | 0.03 | 93 | 1013.1 |
| 20260906032502 | 77 | 77 | 0.0 | 0.0 | 0.00 | 0.03 | 0.03 | 93 | 1013.1 |
| 20260906032012 | 77 | 78 | 0.0 | 0.0 | 0.00 | 0.03 | 0.03 | 92 | 1013.1 |
| 20260906031513 | 77 | 78 | 0.0 | 0.0 | 0.00 | 0.03 | 0.03 | 92 | 1013.1 |
| 20260906031003 | 77 | 78 | 0.0 | 0.0 | 0.00 | 0.03 | 0.03 | 92 | 1013.1 |
| 20260906030510 | 77 | 77 | 0.0 | 0.0 | 0.00 | 0.03 | 0.03 | 92 | 1013.1 |
| 20260906030009 | 77 | 78 | 0.0 | 0.0 | 0.00 | 0.03 | 0.03 | 92 | 1013.0 |
| 20260906025513 | 77 | 78 | 0.0 | 0.0 | 0.00 | 0.03 | 0.03 | 92 | 1013.0 |
| 20260906025009 | 77 | 78 | 0.0 | 0.0 | 0.00 | 0.03 | 0.03 | 92 | 1012.9 |
| 20260906024511 | 77 | 78 | 0.0 | 0.0 | 0.00 | 0.03 | 0.03 | 92 | 1012.8 |
| 20260906024012 | 77 | 78 | 0.0 | 0.0 | 0.00 | 0.03 | 0.03 | 92 | 1012.8 |
| 20260906023508 | 77 | 77 | 0.0 | 1.0 | 0.00 | 0.03 | 0.03 | 92 | 1012.7 |
| 20260906023005 | 77 | 77 | 0.0 | 1.0 | 0.00 | 0.03 | 0.03 | 92 | 1012.7 |
| 20260906022512 | 77 | 259 | 0.0 | 0.0 | 0.00 | 0.03 | 0.03 | 92 | 1012.7 |
| 20260906022004 | 77 | 259 | 0.0 | 0.0 | 0.00 | 0.03 | 0.03 | 92 | 1012.5 |
| 20260906021530 | 77 | 259 | 0.0 | 0.0 | 0.00 | 0.03 | 0.03 | 92 | 1012.4 |
| 20260906021009 | 77 | 259 | 0.0 | 0.0 | 0.00 | 0.03 | 0.03 | 93 | 1012.3 |
| 20260906020505 | 77 | 259 | 0.0 | 0.0 | 0.00 | 0.03 | 0.03 | 93 | 1012.3 |
| 20260906020028 | 77 | 259 | 0.0 | 0.0 | 0.00 | 0.03 | 0.03 | 93 | 1012.2 |
| 20260906015509 | 77 | 259 | 0.0 | 0.0 | 0.00 | 0.03 | 0.03 | 93 | 1012.1 |
| 20260906015014 | 77 | 259 | 0.0 | 0.0 | 0.00 | 0.03 | 0.03 | 93 | 1012.1 |
| 20260906014535 | 77 | 259 | 0.0 | 0.0 | 0.00 | 0.03 | 0.03 | 93 | 1012.1 |
| 20260906014008 | 77 | 258 | 0.0 | 0.0 | 0.00 | 0.03 | 0.03 | 93 | 1012.0 |
| 20260906013514 | 77 | 259 | 0.0 | 0.0 | 0.00 | 0.03 | 0.03 | 93 | 1012.0 |
| 20260906013020 | 77 | 259 | 0.0 | 0.0 | 0.00 | 0.03 | 0.03 | 93 | 1012.0 |
| 20260906012504 | 77 | 258 | 0.0 | 0.0 | 0.00 | 0.03 | 0.03 | 93 | 1012.0 |
| 20260906012012 | 77 | 258 | 0.0 | 0.0 | 0.00 | 0.03 | 0.03 | 93 | 1011.8 |
| 20260906011531 | 77 | 258 | 0.0 | 0.0 | 0.00 | 0.03 | 0.03 | 93 | 1011.9 |
| 20260906011014 | 77 | 258 | 0.0 | 0.0 | 0.00 | 0.03 | 0.03 | 92 | 1011.9 |
| 20260906010510 | 77 | 258 | 0.0 | 0.0 | 0.00 | 0.03 | 0.03 | 92 | 1011.8 |
| 20260906010013 | 78 | 258 | 0.0 | 0.0 | 0.00 | 0.03 | 0.03 | 92 | 1011.8 |
| 20260906005512 | 78 | 258 | 0.0 | 0.0 | 0.00 | 0.03 | 0.03 | 92 | 1011.9 |
| 20260906005013 | 78 | 258 | 0.0 | 0.0 | 0.00 | 0.03 | 0.03 | 92 | 1011.9 |
| 20260906004509 | 78 | 258 | 0.0 | 0.0 | 0.00 | 0.03 | 0.03 | 92 | 1012.0 |
| 20260906004012 | 78 | 258 | 0.0 | 0.0 | 0.00 | 0.03 | 0.03 | 92 | 1012.1 |
| 20260906003508 | 78 | 258 | 0.0 | 0.0 | 0.00 | 0.03 | 0.03 | 92 | 1012.2 |
| 20260906003045 | 78 | 258 | 0.0 | 0.0 | 0.00 | 0.03 | 0.03 | 92 | 1012.1 |
| 20260906002510 | 78 | 258 | 0.0 | 0.0 | 0.00 | 0.03 | 0.03 | 92 | 1012.1 |
| 20260906002009 | 78 | 258 | 0.0 | 0.0 | 0.00 | 0.03 | 0.03 | 92 | 1012.3 |
| 20260906001529 | 78 | 258 | 0.0 | 0.0 | 0.00 | 0.03 | 0.03 | 92 | 1012.4 |
| 20260906001009 | 78 | 258 | 0.0 | 0.0 | 0.00 | 0.03 | 0.03 | 92 | 1012.4 |
| 20260906000520 | 79 | 258 | 0.0 | 0.0 | 0.00 | 0.03 | 0.03 | 92 | 1012.5 |
| 20260906000027 | 79 | 258 | 0.0 | 0.0 | 0.00 | 0.03 | 0.03 | 93 | 1012.5 |
| 20260905235506 | 79 | 258 | 0.0 | 0.0 | 0.00 | 0.03 | 0.03 | 93 | 1012.5 |
| 20260905235017 | 79 | 259 | 0.0 | 0.0 | 0.00 | 0.03 | 0.03 | 93 | 1012.5 |
| 20260905234523 | 79 | 259 | 0.0 | 0.0 | 0.01 | 0.03 | 0.03 | 93 | 1012.5 |
| 20260905234006 | 79 | 258 | 0.0 | 0.0 | 0.01 | 0.03 | 0.03 | 93 | 1012.5 |
| 20260905233516 | 79 | 257 | 0.0 | 0.0 | 0.01 | 0.03 | 0.03 | 92 | 1012.5 |
| 20260905233022 | 79 | 257 | 0.0 | 0.0 | 0.01 | 0.03 | 0.03 | 92 | 1012.5 |
| 20260905232517 | 79 | 257 | 0.0 | 0.0 | 0.01 | 0.03 | 0.03 | 92 | 1012.6 |
| 20260905232013 | 79 | 257 | 0.0 | 0.0 | 0.01 | 0.03 | 0.03 | 92 | 1012.6 |
| 20260905231515 | 80 | 327 | 0.0 | 0.0 | 0.01 | 0.03 | 0.03 | 92 | 1012.6 |
| 20260905231016 | 79 | 327 | 0.0 | 0.0 | 0.02 | 0.03 | 0.03 | 92 | 1012.6 |
| 20260905230510 | 79 | 327 | 0.0 | 0.0 | 0.02 | 0.03 | 0.03 | 91 | 1012.6 |
| 20260905230015 | 79 | 327 | 0.0 | 0.0 | 0.02 | 0.03 | 0.03 | 91 | 1012.5 |
| 20260905225516 | 79 | 327 | 0.0 | 0.0 | 0.02 | 0.03 | 0.03 | 89 | 1012.3 |
| 20260905225013 | 80 | 327 | 0.0 | 0.0 | 0.02 | 0.03 | 0.03 | 89 | 1012.5 |
| 20260905224533 | 80 | 327 | 0.0 | 0.0 | 0.01 | 0.02 | 0.02 | 90 | 1012.6 |
| 20260905224013 | 80 | 327 | 0.0 | 0.0 | 0.01 | 0.02 | 0.02 | 88 | 1012.5 |
| 20260905223508 | 80 | 328 | 0.0 | 0.0 | 0.01 | 0.02 | 0.02 | 88 | 1012.5 |
| 20260905223029 | 80 | 328 | 0.0 | 0.0 | 0.01 | 0.02 | 0.02 | 87 | 1012.5 |
| 20260905222514 | 80 | 328 | 0.0 | 1.0 | 0.01 | 0.02 | 0.02 | 87 | 1012.3 |
| 20260905222007 | 81 | 328 | 0.0 | 1.0 | 0.01 | 0.02 | 0.02 | 85 | 1012.3 |
| 20260905221530 | 81 | 321 | 0.0 | 1.0 | 0.01 | 0.02 | 0.02 | 84 | 1012.5 |
| 20260905221010 | 83 | 268 | 0.0 | 0.0 | 0.00 | 0.01 | 0.01 | 81 | 1012.5 |
| 20260905220513 | 84 | 335 | 0.0 | 0.0 | 0.00 | 0.01 | 0.01 | 79 | 1012.5 |
| 20260905220029 | 86 | 288 | 0.0 | 0.0 | 0.00 | 0.01 | 0.01 | 75 | 1012.4 |
| 20260905215508 | 88 | 260 | 0.0 | 1.0 | 0.00 | 0.01 | 0.01 | 71 | 1012.4 |
| 20260905215013 | 89 | 94 | 0.0 | 1.0 | 0.00 | 0.01 | 0.01 | 66 | 1012.3 |
| 20260905214524 | 90 | 89 | 0.0 | 2.0 | 0.00 | 0.01 | 0.01 | 65 | 1012.1 |
| 20260905214016 | 91 | 98 | 0.0 | 2.0 | 0.00 | 0.01 | 0.01 | 63 | 1011.9 |
| 20260905213518 | 92 | 87 | 0.0 | 2.0 | 0.00 | 0.01 | 0.01 | 61 | 1011.7 |
| 20260905213037 | 92 | 89 | 0.0 | 2.0 | 0.00 | 0.01 | 0.01 | 60 | 1011.8 |
| 20260905212521 | 93 | 89 | 0.0 | 2.0 | 0.00 | 0.01 | 0.01 | 59 | 1011.9 |
| 20260905212011 | 93 | 67 | 0.0 | 0.0 | 0.00 | 0.01 | 0.01 | 58 | 1011.9 |
| 20260905211519 | 93 | 66 | 0.0 | 0.0 | 0.00 | 0.01 | 0.01 | 60 | 1011.8 |
| 20260905211015 | 94 | 66 | 0.0 | 0.0 | 0.00 | 0.01 | 0.01 | 55 | 1011.9 |
| 20260905210512 | 94 | 66 | 0.0 | 0.0 | 0.00 | 0.01 | 0.01 | 56 | 1011.9 |
| 20260905210033 | 95 | 66 | 0.0 | 1.0 | 0.00 | 0.01 | 0.01 | 56 | 1011.9 |
| 20260905205517 | 95 | 63 | 0.0 | 1.0 | 0.00 | 0.01 | 0.01 | 54 | 1012.0 |
| 20260905205013 | 96 | 318 | 0.0 | 4.0 | 0.00 | 0.01 | 0.01 | 53 | 1011.8 |
| 20260905204532 | 96 | 360 | 0.0 | 4.0 | 0.00 | 0.01 | 0.01 | 54 | 1011.8 |
| 20260905204014 | 96 | 338 | 0.0 | 2.0 | 0.00 | 0.01 | 0.01 | 54 | 1011.8 |
| 20260905203515 | 96 | 3 | 0.0 | 0.0 | 0.00 | 0.01 | 0.01 | 56 | 1011.9 |
| 20260905203034 | 97 | 354 | 0.0 | 0.0 | 0.00 | 0.01 | 0.01 | 53 | 1012.0 |
| 20260905202512 | 99 | 355 | 0.0 | 1.0 | 0.00 | 0.01 | 0.01 | 50 | 1012.1 |
| 20260905202016 | 100 | 342 | 0.0 | 1.0 | 0.00 | 0.01 | 0.01 | 49 | 1012.1 |
| 20260905201528 | 99 | 221 | 0.0 | 1.0 | 0.00 | 0.01 | 0.01 | 48 | 1012.1 |
| 20260905201015 | 98 | 327 | 0.0 | 1.0 | 0.00 | 0.01 | 0.01 | 51 | 1012.2 |
| 20260905200519 | 98 | 56 | 0.0 | 1.0 | 0.00 | 0.01 | 0.01 | 54 | 1012.3 |
| 20260905200006 | 97 | 77 | 0.0 | 1.0 | 0.00 | 0.01 | 0.01 | 53 | 1012.4 |
| 20260905195508 | 98 | 84 | 0.0 | 1.0 | 0.00 | 0.01 | 0.01 | 50 | 1012.4 |
| 20260905195006 | 98 | 112 | 0.0 | 1.0 | 0.00 | 0.01 | 0.01 | 51 | 1012.4 |
| 20260905194526 | 97 | 244 | 0.0 | 1.0 | 0.00 | 0.01 | 0.01 | 53 | 1012.3 |
| 20260905194009 | 97 | 103 | 0.0 | 3.0 | 0.00 | 0.01 | 0.01 | 53 | 1012.4 |
| 20260905193505 | 97 | 2 | 0.0 | 3.0 | 0.00 | 0.01 | 0.01 | 51 | 1012.6 |
| 20260905193025 | 98 | 130 | 1.0 | 3.0 | 0.00 | 0.01 | 0.01 | 49 | 1012.7 |
| 20260905192506 | 99 | 281 | 0.0 | 3.0 | 0.00 | 0.01 | 0.01 | 50 | 1012.8 |
| 20260905192004 | 98 | 281 | 0.0 | 1.0 | 0.00 | 0.01 | 0.01 | 51 | 1012.8 |
| 20260905191520 | 99 | 60 | 0.0 | 1.0 | 0.00 | 0.01 | 0.01 | 48 | 1013.0 |
| 20260905191003 | 99 | 297 | 0.0 | 1.0 | 0.00 | 0.01 | 0.01 | 50 | 1013.1 |
| 20260905190511 | 99 | 214 | 0.0 | 1.0 | 0.00 | 0.01 | 0.01 | 50 | 1013.1 |
| 20260905190018 | 99 | 341 | 0.0 | 1.0 | 0.00 | 0.01 | 0.01 | 53 | 1013.1 |
| 20260905185503 | 98 | 233 | 0.0 | 1.0 | 0.00 | 0.01 | 0.01 | 53 | 1013.2 |
| 20260905185011 | 99 | 21 | 0.0 | 1.0 | 0.00 | 0.01 | 0.01 | 52 | 1013.2 |
| 20260905184513 | 99 | 238 | 0.0 | 0.0 | 0.00 | 0.01 | 0.01 | 54 | 1013.2 |
| 20260905184015 | 98 | 212 | 0.0 | 0.0 | 0.00 | 0.01 | 0.01 | 53 | 1013.3 |
| 20260905183510 | 98 | 252 | 0.0 | 0.0 | 0.00 | 0.01 | 0.01 | 56 | 1013.4 |
| 20260905183008 | 98 | 252 | 0.0 | 0.0 | 0.00 | 0.01 | 0.01 | 56 | 1013.5 |
| 20260905182514 | 98 | 224 | 0.0 | 1.0 | 0.00 | 0.01 | 0.01 | 58 | 1013.5 |
| 20260905182006 | 97 | 219 | 0.0 | 1.0 | 0.00 | 0.01 | 0.01 | 60 | 1013.6 |
| 20260905181507 | 97 | 222 | 0.0 | 1.0 | 0.00 | 0.01 | 0.01 | 58 | 1013.7 |
| 20260905181012 | 97 | 285 | 0.0 | 1.0 | 0.00 | 0.01 | 0.01 | 58 | 1013.9 |
| 20260905180507 | 96 | 262 | 0.0 | 1.0 | 0.00 | 0.01 | 0.01 | 60 | 1013.9 |
| 20260905180027 | 97 | 220 | 0.0 | 0.0 | 0.00 | 0.02 | 0.01 | 59 | 1014.0 |
| 20260905175510 | 96 | 282 | 0.0 | 0.0 | 0.00 | 0.02 | 0.01 | 61 | 1014.1 |
| 20260905175005 | 95 | 247 | 0.0 | 1.0 | 0.00 | 0.03 | 0.01 | 63 | 1014.2 |
| 20260905174526 | 94 | 216 | 0.0 | 1.0 | 0.00 | 0.03 | 0.01 | 65 | 1014.3 |